Weather History for McGuire AFB, NJ

Change the Weather History Date:

Saturday, February 9, 2013

  Actual Average Record
Temperature  
Mean Temperature 27 °F -  
Max Temperature 32 °F 41 °F 66 °F (2001)
Min Temperature 21 °F 23 °F 14 °F (2000)
Degree Days  
Heating Degree Days 38    
Moisture  
Dew Point 24 °F    
Average Humidity 83    
Maximum Humidity 100    
Minimum Humidity 45    
Precipitation  
Precipitation 0.05 in - - ()
Snow  
Snow 0.00 in - - ()
Snow Depth 5.00 in    
Sea Level Pressure  
Sea Level Pressure 29.88 in    
Wind  
Wind Speed 15 mph (NW)    
Max Wind Speed 29 mph    
Max Gust Speed 43 mph    
Visibility 3 miles    
Events Snow    
Averages and records for this station are not official NWS values.
T = Trace of Precipitation, MM = Missing Value Source: NWS Daily Summary

Daily Weather History Graph

Daily Weather History Graph

Search for Another Location

Airport:

Trip Planner

Search our weather history database for the weather conditions in past years. The results will help you decide how hot, cold, wet, or windy it might be!

Date:

Astronomy

Feb. 09, 2013 Rise Set
Actual Time 6:58 AM EST 5:27 PM EST
Civil Twilight 6:30 AM EST 5:55 PM EST
Nautical Twilight 5:58 AM EST 6:27 PM EST
Astronomical Twilight 5:26 AM EST 6:59 PM EST
Moon 6:08 AM EST (2/9) 5:07 PM EST (2/9)
Length of Visible Light 11h 25m
Length of Day
10h 29m
Waning Crescent, 0% of the Moon is Illuminated
Feb 9
Waning Crescent
Feb 10
New
Feb 17
First Quarter
Feb 25
Full
Mar 4
Last Quarter

Hourly Weather History & Observations

Time (EST) Temp. Windchill Dew Point Humidity Pressure Visibility Wind Dir Wind Speed Gust Speed Precip Events Conditions
12:00 AM 30.2 °F 19.8 °F 28.4 °F 93% 29.75 in 2.5 mi NW 13.8 mph - N/A Snow Light Snow
12:01 AM 30.2 °F 20.2 °F 28.4 °F 93% 29.75 in 3.0 mi NW 12.7 mph - N/A Snow Light Snow
12:21 AM 32.0 °F 20.8 °F 30.2 °F 93% 29.76 in 2.5 mi NNW 17.3 mph - N/A Snow Light Snow
12:26 AM 32.0 °F 21.6 °F 30.2 °F 93% 29.76 in 3.0 mi NNW 15.0 mph - N/A Snow Light Snow
12:27 AM 32.0 °F 21.6 °F 30.2 °F 93% 29.76 in 2.5 mi NW 15.0 mph - N/A Snow Light Snow
12:30 AM 32.0 °F 21.6 °F 28.4 °F 87% 29.76 in 3.0 mi NW 15.0 mph - N/A Snow Light Snow
12:37 AM 30.2 °F 19.3 °F 28.4 °F 93% 29.76 in 2.5 mi NNW 15.0 mph - N/A Snow Light Snow
12:55 AM 30.7 °F 21.4 °F 28.8 °F 92% 29.76 in 2.0 mi NNW 11.5 mph - 0.00 in Snow Light Snow
1:00 AM 30.2 °F 19.8 °F 28.4 °F 93% 29.77 in 2.0 mi NNW 13.8 mph - N/A Snow Light Snow
1:02 AM 30.2 °F 19.8 °F 28.4 °F 93% 29.77 in 1.8 mi NNW 13.8 mph - N/A Snow Light Snow
1:06 AM 30.2 °F 18.9 °F 28.4 °F 93% 29.77 in 1.5 mi NNW 16.1 mph - N/A Snow Light Snow
1:11 AM 30.2 °F 19.3 °F 28.4 °F 93% 29.77 in 1.2 mi NNW 15.0 mph - N/A Snow Light Snow
1:15 AM 30.2 °F 20.2 °F 28.4 °F 93% 29.77 in 1.5 mi NNW 12.7 mph - N/A Snow Light Snow
1:18 AM 30.2 °F 19.3 °F 28.4 °F 93% 29.77 in 1.5 mi NNW 15.0 mph - N/A Snow Light Snow
1:26 AM 30.2 °F 20.8 °F 28.4 °F 93% 29.77 in 1.8 mi NNW 11.5 mph - N/A Snow Light Snow
1:29 AM 30.2 °F 21.9 °F 28.4 °F 93% 29.77 in 2.0 mi NNW 9.2 mph - N/A Snow Light Snow
1:32 AM 30.2 °F 21.9 °F 28.4 °F 93% 29.76 in 2.5 mi NNW 9.2 mph - N/A Snow Light Snow
1:33 AM 30.2 °F 21.9 °F 28.4 °F 93% 29.77 in 3.0 mi NW 9.2 mph - N/A Snow Light Snow
1:35 AM 30.2 °F 21.9 °F 28.4 °F 93% 29.77 in 3.0 mi NNW 9.2 mph - N/A Snow Light Snow
1:46 AM 30.2 °F 20.8 °F 28.4 °F 93% 29.78 in 2.5 mi NW 11.5 mph - N/A Snow Light Snow
1:47 AM 30.2 °F 20.8 °F 28.4 °F 93% 29.78 in 2.5 mi NW 11.5 mph - N/A Snow Light Snow
1:52 AM 30.2 °F 21.9 °F 28.4 °F 93% 29.78 in 2.0 mi NW 9.2 mph - N/A Snow Light Snow
1:53 AM 30.2 °F 22.6 °F 28.4 °F 93% 29.78 in 1.8 mi NW 8.1 mph - N/A Snow Light Snow
1:55 AM 30.4 °F 22.9 °F 28.9 °F 94% 29.78 in 1.8 mi NW 8.1 mph - 0.01 in Snow Light Snow
1:57 AM 30.2 °F 21.9 °F 28.4 °F 93% 29.78 in 1.5 mi NW 9.2 mph - N/A Snow Light Snow
2:00 AM 30.2 °F 22.6 °F 28.4 °F 93% 29.78 in 1.2 mi NW 8.1 mph - N/A Snow Light Snow
2:04 AM 30.2 °F 21.9 °F 28.4 °F 93% 29.79 in 1.2 mi NW 9.2 mph - N/A Snow Light Snow
2:05 AM 30.2 °F 21.9 °F 28.4 °F 93% 29.79 in 1.0 mi NW 9.2 mph - N/A Snow Light Snow
2:10 AM 30.2 °F 21.9 °F 30.2 °F 100% 29.79 in 1.0 mi NW 9.2 mph - N/A Snow Light Snow
2:13 AM 30.2 °F 21.9 °F 30.2 °F 100% 29.79 in 1.0 mi NW 9.2 mph - N/A Snow Light Snow
2:17 AM 30.2 °F 23.4 °F 30.2 °F 100% 29.79 in 1.2 mi NW 6.9 mph - N/A Snow Light Snow
2:20 AM 30.2 °F 22.6 °F 30.2 °F 100% 29.79 in 1.5 mi NW 8.1 mph - N/A Snow Light Snow
2:22 AM 30.2 °F 22.6 °F 30.2 °F 100% 29.79 in 1.8 mi NW 8.1 mph - N/A Snow Light Snow
2:24 AM 30.2 °F 22.6 °F 30.2 °F 100% 29.79 in 2.0 mi NW 8.1 mph - N/A Snow Light Snow
2:25 AM 30.2 °F 22.6 °F 30.2 °F 100% 29.79 in 2.0 mi NW 8.1 mph - N/A Snow Light Snow
2:32 AM 30.2 °F 21.9 °F 30.2 °F 100% 29.79 in 3.0 mi NW 9.2 mph - N/A Snow Light Snow
2:33 AM 30.2 °F 21.9 °F 30.2 °F 100% 29.79 in 3.0 mi NW 9.2 mph - N/A Snow Light Snow
2:39 AM 30.2 °F 20.8 °F 30.2 °F 100% 29.79 in 2.5 mi NW 11.5 mph - N/A Snow Light Snow
2:42 AM 30.2 °F 21.3 °F 30.2 °F 100% 29.79 in 2.5 mi NW 10.4 mph - N/A Snow Light Snow
2:46 AM 32.0 °F 23.0 °F 30.2 °F 93% 29.79 in 2.0 mi NW 11.5 mph - N/A Snow Light Snow
2:48 AM 32.0 °F 23.0 °F 30.2 °F 93% 29.79 in 2.0 mi NW 11.5 mph - N/A Snow Light Snow
2:54 AM 32.0 °F 23.0 °F 30.2 °F 93% 29.79 in 3.0 mi WNW 11.5 mph - N/A Snow Light Snow
2:55 AM 31.5 °F 22.3 °F 30.2 °F 95% 29.79 in 3.0 mi WNW 11.5 mph - 0.02 in Snow Light Snow
3:00 AM 32.0 °F 22.5 °F 30.2 °F 93% 29.79 in 2.5 mi WNW 12.7 mph - N/A Snow Light Snow
3:06 AM 32.0 °F 24.2 °F 30.2 °F 93% 29.80 in 1.8 mi WNW 9.2 mph - N/A Snow Light Snow
3:09 AM 32.0 °F 23.0 °F 30.2 °F 93% 29.80 in 1.5 mi WNW 11.5 mph - N/A Snow Light Snow
3:17 AM 32.0 °F 21.2 °F 30.2 °F 93% 29.80 in 1.5 mi WNW 16.1 mph 23.0 mph N/A Snow Light Snow
3:18 AM 32.0 °F 21.6 °F 30.2 °F 93% 29.80 in 1.2 mi WNW 15.0 mph 23.0 mph N/A Snow Light Snow
3:24 AM 32.0 °F 20.8 °F 30.2 °F 93% 29.80 in 1.2 mi WNW 17.3 mph 23.0 mph N/A Snow Light Snow
3:28 AM 30.2 °F 17.8 °F 30.2 °F 100% 29.81 in 1.5 mi WNW 19.6 mph - N/A Snow Light Snow
3:31 AM 30.2 °F 17.8 °F 28.4 °F 93% 29.81 in 1.8 mi WNW 19.6 mph - N/A Snow Light Snow
3:35 AM 30.2 °F 18.1 °F 28.4 °F 93% 29.81 in 1.5 mi WNW 18.4 mph - N/A Snow Light Snow
3:38 AM 30.2 °F 17.4 °F 28.4 °F 93% 29.81 in 1.2 mi WNW 20.7 mph 24.2 mph N/A Snow Light Snow
3:41 AM 30.2 °F 18.5 °F 28.4 °F 93% 29.81 in 1.0 mi WNW 17.3 mph 24.2 mph N/A Snow Light Snow
3:45 AM 30.2 °F 18.9 °F 28.4 °F 93% 29.82 in 1.0 mi WNW 16.1 mph 24.2 mph N/A Snow Light Snow
3:48 AM 30.2 °F 17.8 °F 28.4 °F 93% 29.82 in 1.0 mi WNW 19.6 mph 24.2 mph N/A Snow Light Snow
3:53 AM 28.4 °F 15.8 °F 26.6 °F 93% 29.82 in 1.2 mi WNW 18.4 mph 25.3 mph N/A Snow Light Snow
3:55 AM 28.9 °F 16.9 °F 27.0 °F 92% 29.82 in 1.2 mi WNW 17.3 mph 25.3 mph 0.02 in Snow Light Snow
4:03 AM 28.4 °F 15.1 °F 26.6 °F 93% 29.83 in 1.2 mi WNW 20.7 mph 25.3 mph N/A Snow Light Snow
4:05 AM 28.4 °F 15.1 °F 26.6 °F 93% 29.83 in 1.5 mi WNW 20.7 mph 27.6 mph N/A Snow Light Snow
4:09 AM 28.4 °F 15.1 °F 26.6 °F 93% 29.83 in 1.8 mi WNW 20.7 mph 29.9 mph N/A Snow Light Snow
4:13 AM 28.4 °F 14.1 °F 26.6 °F 93% 29.83 in 2.0 mi NW 24.2 mph 29.9 mph N/A Snow Light Snow
4:14 AM 28.4 °F 14.7 °F 26.6 °F 93% 29.83 in 2.0 mi WNW 21.9 mph 29.9 mph N/A Snow Light Snow
4:18 AM 28.4 °F 14.1 °F 24.8 °F 86% 29.84 in 1.8 mi WNW 24.2 mph 29.9 mph N/A Snow Light Snow
4:23 AM 28.4 °F 15.4 °F 24.8 °F 86% 29.84 in 1.8 mi NW 19.6 mph - N/A Snow Light Snow
4:26 AM 28.4 °F 15.8 °F 24.8 °F 86% 29.85 in 2.0 mi WNW 18.4 mph 26.5 mph N/A Snow Light Snow
4:28 AM 28.4 °F 15.4 °F 24.8 °F 86% 29.85 in 2.0 mi WNW 19.6 mph 26.5 mph N/A Snow Light Snow
4:31 AM 28.4 °F 14.4 °F 24.8 °F 86% 29.85 in 1.8 mi WNW 23.0 mph 28.8 mph N/A Snow Light Snow
4:34 AM 28.4 °F 15.1 °F 24.8 °F 86% 29.85 in 1.8 mi WNW 20.7 mph 29.9 mph N/A Snow Light Snow
4:41 AM 28.4 °F 15.4 °F 24.8 °F 86% 29.86 in 2.0 mi WNW 19.6 mph 29.9 mph N/A Snow Light Snow
4:44 AM 26.6 °F 12.0 °F 24.8 °F 93% 29.86 in 2.0 mi WNW 23.0 mph - N/A Snow Light Snow
4:48 AM 26.6 °F 12.7 °F 23.0 °F 86% 29.86 in 2.0 mi WNW 20.7 mph - N/A Snow Light Snow
4:55 AM 27.1 °F 13.1 °F 23.4 °F 86% 29.86 in 2.0 mi WNW 21.9 mph - 0.00 in Snow Light Snow
4:56 AM 26.6 °F 12.7 °F 23.0 °F 86% 29.86 in 1.8 mi WNW 20.7 mph - N/A Snow Light Snow
5:06 AM 26.6 °F 13.4 °F 23.0 °F 86% 29.87 in 2.0 mi WNW 18.4 mph 26.5 mph N/A Snow Light Snow
5:11 AM 26.6 °F 12.4 °F 23.0 °F 86% 29.87 in 1.8 mi WNW 21.9 mph 32.2 mph N/A Snow Light Snow
5:30 AM 26.6 °F 13.4 °F 23.0 °F 86% 29.88 in 2.0 mi WNW 18.4 mph 28.8 mph N/A Snow Light Snow
5:43 AM 26.6 °F 12.4 °F 21.2 °F 80% 29.89 in 1.8 mi WNW 21.9 mph 28.8 mph N/A Snow Light Snow
5:49 AM 26.6 °F 13.1 °F 21.2 °F 80% 29.89 in 2.0 mi WNW 19.6 mph - N/A Snow Light Snow
5:55 AM 25.9 °F 12.5 °F 21.2 °F 82% 29.90 in 2.0 mi WNW 18.4 mph 26.5 mph 0.00 in Snow Light Snow
6:19 AM 26.6 °F 12.7 °F 19.4 °F 74% 29.91 in 2.5 mi WNW 20.7 mph 28.8 mph N/A Snow Light Snow
6:20 AM 26.6 °F 12.7 °F 19.4 °F 74% 29.91 in 2.5 mi WNW 20.7 mph - N/A Snow Light Snow
6:21 AM 26.6 °F 12.4 °F 19.4 °F 74% 29.91 in 3.0 mi WNW 21.9 mph 27.6 mph N/A Snow Light Snow
6:26 AM 26.6 °F 12.7 °F 19.4 °F 74% 29.91 in 3.0 mi WNW 20.7 mph 28.8 mph N/A Snow Light Snow
6:46 AM 26.6 °F 12.7 °F 19.4 °F 74% 29.93 in 3.0 mi WNW 20.7 mph 27.6 mph N/A Snow Light Snow
6:49 AM 26.6 °F 12.4 °F 19.4 °F 74% 29.93 in 2.5 mi WNW 21.9 mph 27.6 mph N/A Snow Light Snow
6:55 AM 25.9 °F 12.1 °F 18.9 °F 75% 29.94 in 2.0 mi WNW 19.6 mph 28.8 mph 0.00 in Snow Light Snow
7:54 AM 24.8 °F 11.1 °F 17.6 °F 74% 29.97 in 1.2 mi WNW 18.4 mph 29.9 mph N/A Snow Light Snow
7:55 AM 25.5 °F 10.9 °F 17.6 °F 72% 29.97 in 1.0 mi WNW 21.9 mph 29.9 mph 0.00 in Snow Light Snow
8:04 AM 26.6 °F 12.4 °F 17.6 °F 69% 29.98 in 1.8 mi WNW 21.9 mph 29.9 mph N/A Snow Light Snow
8:05 AM 26.6 °F 12.4 °F 17.6 °F 69% 29.98 in 2.0 mi WNW 21.9 mph 29.9 mph N/A Snow Light Snow
8:11 AM 26.6 °F 12.7 °F 17.6 °F 69% 29.98 in 3.0 mi WNW 20.7 mph 29.9 mph N/A Snow Light Snow
8:34 AM 26.6 °F 12.7 °F 17.6 °F 69% 29.99 in 5.0 mi WNW 20.7 mph 25.3 mph N/A   Haze
8:35 AM 26.6 °F 12.4 °F 17.6 °F 69% 29.99 in 5.0 mi WNW 21.9 mph 27.6 mph N/A Snow Light Snow
8:55 AM 26.2 °F 12.2 °F 17.2 °F 69% 29.99 in 6.0 mi WNW 20.7 mph 27.6 mph 0.00 in Snow Light Snow
8:59 AM 26.6 °F 11.7 °F 17.6 °F 69% 29.99 in 6.0 mi WNW 24.2 mph 29.9 mph N/A   Haze
9:00 AM 26.6 °F 12.4 °F 17.6 °F 69% 29.99 in 6.0 mi WNW 21.9 mph 29.9 mph N/A Snow Light Snow
9:03 AM 26.6 °F 13.4 °F 17.6 °F 69% 29.99 in 6.0 mi WNW 18.4 mph 29.9 mph N/A   Haze
9:08 AM 26.6 °F 12.4 °F 17.6 °F 69% 29.99 in 6.0 mi WNW 21.9 mph 32.2 mph N/A Snow Light Snow
9:55 AM 26.8 °F 10.8 °F 16.5 °F 65% 30.01 in 7.0 mi WNW 28.8 mph 34.5 mph 0.00 in Snow Light Snow
10:12 AM 28.4 °F 14.4 °F 15.8 °F 59% 30.03 in 10.0 mi WNW 23.0 mph 34.5 mph N/A   Clear
10:55 AM 28.6 °F 16.0 °F 17.1 °F 62% 30.05 in 10.0 mi WNW 18.4 mph 31.1 mph 0.00 in   Clear
11:55 AM 29.5 °F 15.0 °F 17.1 °F 60% 30.06 in 10.0 mi WNW 26.5 mph 42.6 mph N/A   Clear
12:55 PM 31.3 °F 19.2 °F 16.7 °F 55% 30.08 in 10.0 mi NW 19.6 mph 28.8 mph N/A   Clear
1:55 PM 32.4 °F 20.0 °F 16.5 °F 52% 30.10 in 10.0 mi NW 21.9 mph 32.2 mph N/A   Clear
2:55 PM 32.7 °F 19.9 °F 15.3 °F 49% 30.11 in 10.0 mi WNW 24.2 mph 28.8 mph N/A   Clear
3:55 PM 32.4 °F 20.6 °F 13.6 °F 46% 30.13 in 10.0 mi WNW 19.6 mph - N/A   Clear
4:55 PM 31.1 °F 19.3 °F 12.0 °F 45% 30.17 in 10.0 mi WNW 18.4 mph - N/A   Clear
5:55 PM 28.9 °F 15.4 °F 10.8 °F 47% 30.19 in 10.0 mi WNW 21.9 mph 26.5 mph N/A   Clear
6:55 PM 27.7 °F 15.6 °F 9.0 °F 45% 30.22 in 10.0 mi WNW 16.1 mph - N/A   Clear
7:55 PM 26.1 °F 14.5 °F 8.6 °F 48% 30.26 in 10.0 mi WNW 13.8 mph 21.9 mph N/A   Clear
8:55 PM 24.8 °F 11.5 °F 7.9 °F 49% 30.30 in 10.0 mi WNW 17.3 mph 21.9 mph N/A   Clear
9:55 PM 23.2 °F 10.8 °F 8.1 °F 52% 30.32 in 10.0 mi NW 13.8 mph - N/A   Clear
10:55 PM 22.1 °F 10.6 °F 7.2 °F 53% 30.34 in 10.0 mi NW 11.5 mph - N/A   Clear
11:55 PM 21.2 °F 10.9 °F 7.2 °F 55% 30.36 in 10.0 mi NNW 9.2 mph - N/A   Clear